Theta_e
333 331 334 335 337 336 335 335 336 336 337 338 338 338 338 338 338 337 337 337 336 335 334 335 336 335 334 333 331 331 334 333 332 331 328 328 325 326 327 328 330 332 331 329 327 322 319 316 317 323 323 323 324 323 323 322 323 323 323 324 324 325 326
334 333 334 334 334 335 335 335 335 334 335 336 337 338 338 337 337 337 337 336 336 336 335 334 337 335 334 333 331 330 331 333 335 335 331 329 330 328 325 328 329 328 328 329 328 328 320 318 318 318 317 321 321 318 318 319 320 320 322 325 324 324 325
332 331 333 332 332 334 334 334 333 332 332 332 333 335 337 337 337 338 337 336 337 336 334 334 336 335 335 335 335 335 335 335 333 334 333 333 332 331 330 330 328 327 326 325 325 325 324 324 319 317 318 319 316 315 317 317 318 319 322 325 324 324 325
330 330 329 329 331 332 332 331 331 330 330 330 331 333 335 335 336 336 336 337 337 338 335 335 336 335 336 336 336 336 335 335 333 334 334 334 334 332 331 330 329 329 327 325 324 325 325 322 320 319 319 319 318 315 316 317 319 319 320 323 324 325 325
330 329 329 329 330 331 331 330 329 328 329 329 331 331 332 333 334 334 335 336 335 335 335 336 336 335 336 335 335 335 336 335 336 334 334 333 332 332 332 332 331 332 331 329 328 328 325 323 322 318 317 317 317 317 316 316 317 317 317 317 320 322 323
330 331 331 330 331 330 330 329 328 327 327 328 329 330 332 333 334 334 334 334 334 335 335 335 336 335 335 335 335 335 335 333 333 334 332 333 332 331 332 333 332 331 330 331 330 328 328 326 323 319 318 319 315 315 316 317 315 314 314 314 316 318 319
330 331 331 330 330 330 330 329 329 328 327 329 329 331 331 332 333 334 335 335 334 334 334 335 335 335 336 333 335 334 333 333 333 333 333 333 333 335 335 331 331 330 330 331 330 330 327 325 321 320 318 318 319 315 315 314 314 312 311 313 314 314 314
328 329 330 331 330 329 330 330 330 329 328 329 329 330 330 332 331 331 332 332 332 333 333 334 333 334 334 333 334 334 334 333 333 333 332 332 331 331 332 332 332 330 330 330 330 330 329 327 325 322 319 315 313 313 312 313 313 312 311 312 313 313 314
327 328 327 327 329 330 330 329 329 330 330 329 328 328 329 331 330 330 330 330 330 330 330 330 330 331 331 333 332 333 332 330 333 333 333 333 332 332 332 332 331 329 331 330 330 330 328 329 327 323 322 318 313 310 312 311 312 310 311 310 311 312 312
327 325 324 326 328 329 329 329 328 327 328 329 327 327 328 330 331 330 329 328 328 327 326 326 326 327 328 330 331 331 331 330 332 331 331 332 332 332 331 332 331 330 330 331 330 331 330 328 325 324 323 320 318 313 311 310 311 309 309 311 306 309 312
326 326 326 327 327 326 325 326 326 325 326 326 326 326 328 328 328 328 329 327 326 325 325 324 323 324 326 326 326 327 326 329 328 328 329 330 331 332 331 331 331 329 330 330 330 331 329 327 324 324 323 323 322 316 315 311 310 312 309 311 312 307 310
328 327 327 327 326 325 324 324 326 327 326 325 325 326 326 326 326 326 327 326 325 324 324 324 324 324 325 324 324 323 323 325 325 325 326 329 329 331 331 330 331 329 330 331 330 330 329 326 324 324 323 323 322 324 318 314 309 312 313 309 312 311 308
326 325 325 326 326 325 325 325 325 326 326 324 325 326 326 325 325 325 325 325 324 324 323 323 325 324 324 324 323 322 323 324 323 324 324 326 326 330 330 329 329 329 329 329 329 328 326 325 325 323 323 322 321 323 322 315 311 310 316 314 313 310 310
326 326 326 326 327 326 326 325 326 327 324 323 324 324 325 324 324 324 323 323 323 323 323 323 325 325 323 322 323 322 321 321 320 321 322 323 325 328 328 327 327 328 329 328 328 327 325 324 325 325 324 321 320 321 319 316 312 312 314 317 315 309 311
326 326 326 326 326 325 325 325 326 325 325 323 324 323 323 324 324 323 322 322 322 321 322 322 323 323 321 323 323 323 323 321 320 320 322 320 324 325 327 326 325 326 327 327 328 325 325 323 322 322 322 321 318 320 322 315 313 311 311 315 313 314 311
324 324 325 325 325 324 325 325 325 326 324 323 324 324 323 324 323 322 322 322 321 321 321 322 324 323 323 322 321 322 323 323 322 322 321 320 320 323 325 325 325 325 326 328 327 327 326 324 322 321 322 322 321 321 319 317 314 312 313 312 315 311 312
324 323 324 324 325 325 324 324 324 325 324 323 322 323 324 323 322 322 321 320 320 320 320 321 321 321 321 321 321 320 321 322 321 322 321 318 318 322 324 324 324 325 326 327 326 326 326 326 325 323 324 324 324 322 322 320 318 316 314 312 313 310 313
324 323 324 323 324 324 324 323 324 323 324 323 323 323 322 323 322 321 322 319 319 319 320 320 320 320 322 323 322 322 321 320 321 321 322 321 322 321 322 323 322 324 325 326 325 324 324 325 324 324 324 324 322 322 321 319 318 316 315 312 313 313 315
324 324 323 323 322 323 323 323 323 323 323 322 322 323 322 322 321 321 320 320 319 319 319 320 319 320 320 322 322 323 323 322 321 320 321 321 320 324 324 322 322 322 324 325 325 325 324 323 321 322 322 321 320 320 320 319 319 317 316 313 315 312 313
324 324 323 323 323 322 322 323 322 321 321 321 321 321 321 321 322 322 321 322 321 321 321 321 322 322 321 321 322 322 322 323 322 322 321 321 321 322 321 322 323 324 322 323 323 322 322 322 321 320 321 322 319 318 319 318 317 316 316 315 314 313 312
323 323 323 322 322 323 324 323 323 323 322 321 320 320 320 321 321 322 322 322 323 323 323 322 322 323 322 322 322 322 322 323 322 322 323 323 324 322 322 322 322 322 323 323 324 325 325 323 322 322 321 321 320 319 318 317 316 315 315 315 312 311 312
321 321 321 320 321 322 322 323 322 321 322 322 322 320 319 321 321 320 321 322 322 323 324 324 324 325 324 323 325 323 323 322 323 323 322 323 325 325 324 325 325 324 326 324 313 317 319 319 323 322 322 320 319 318 318 316 315 314 314 314 313 314 312
320 321 321 321 320 321 321 320 320 320 319 320 322 320 319 320 320 321 320 321 322 324 325 326 318 308 312 323 324 322 324 324 324 323 323 323 324 325 325 327 328 319 315 312 308 303 303 305 310 319 323 322 318 317 317 315 314 314 314 313 312 312 310
320 320 318 318 319 319 318 319 320 320 321 321 319 317 319 320 320 321 320 321 322 324 325 320 299 299 299 302 319 324 323 324 325 324 324 324 323 325 325 324 325 321 318 314 313 298 299 299 300 300 304 310 315 320 318 315 315 315 312 312 312 313 311
316 316 316 315 313 314 317 318 319 320 320 320 318 317 318 320 321 321 322 322 323 323 323 300 294 294 295 295 301 322 324 324 325 324 324 323 325 325 325 326 326 327 326 325 324 318 307 299 298 298 297 299 300 302 306 318 317 316 315 312 313 313 312
316 316 315 315 315 318 319 318 319 318 318 317 317 319 319 320 321 322 323 322 323 323 322 295 294 293 293 294 295 307 323 324 323 324 325 325 325 325 325 325 326 326 324 315 317 322 323 319 300 296 298 297 297 297 297 296 297 318 320 316 315 314 314
314 314 315 317 318 318 319 317 317 317 317 316 317 317 319 321 321 321 322 323 323 322 319 297 293 293 293 292 294 306 324 324 324 324 324 325 326 326 326 325 325 326 327 325 325 323 322 322 320 317 316 317 318 310 297 296 296 293 303 319 318 316 319
310 311 313 315 316 315 316 316 316 316 318 319 318 318 319 319 319 319 319 320 321 321 312 292 292 292 292 293 294 304 323 323 324 325 325 325 325 324 324 324 324 324 325 326 326 321 322 321 320 320 319 319 319 319 318 318 318 318 318 318 320 321 323
303 304 306 308 309 310 311 310 311 314 315 316 316 317 316 317 319 319 320 322 323 321 309 292 292 292 293 294 293 318 323 324 324 324 324 324 323 324 323 323 323 323 324 324 313 301 308 321 321 320 319 319 318 316 314 300 294 295 306 316 320 320 321
301 302 303 303 303 304 305 306 308 312 314 313 313 312 311 312 313 316 317 318 320 321 312 296 292 293 293 293 301 320 320 320 321 322 323 323 322 323 323 322 323 322 323 324 311 299 296 301 319 320 319 319 318 316 314 308 295 292 291 292 292 292 293
302 302 302 302 302 302 304 305 305 307 309 309 308 309 311 310 310 310 310 310 310 315 313 299 293 293 294 293 300 318 320 320 321 321 321 321 321 321 321 312 314 320 321 322 305 296 293 304 318 319 318 318 317 316 315 310 309 302 292 292 291 291 292
300 300 300 300 302 302 303 303 304 306 306 307 307 307 309 309 308 308 309 309 305 310 310 302 292 292 293 294 303 313 315 318 318 320 320 320 321 320 321 316 308 309 312 309 296 297 293 302 318 319 320 318 316 316 317 313 310 308 307 307 306 304 301
299 299 299 300 300 301 302 304 304 304 304 304 303 302 303 304 304 304 305 307 308 307 306 304 295 290 292 294 294 307 312 314 315 315 316 315 315 317 318 319 314 295 292 291 291 291 293 293 312 319 319 317 316 315 317 312 311 311 308 307 304 303 304
300 299 299 300 300 301 302 303 303 304 304 305 305 303 302 302 301 302 302 303 305 305 303 302 298 290 291 291 291 295 310 310 311 311 312 312 312 313 314 315 318 298 291 291 291 291 292 292 295 311 316 317 318 317 308 311 304 299 306 303 301 302 301
300 300 300 301 301 300 301 302 302 302 302 303 303 303 303 302 302 302 302 301 302 303 302 297 301 293 290 291 290 290 302 306 301 306 308 311 311 312 312 312 314 303 293 292 292 292 292 292 291 301 311 302 292 293 309 308 304 303 302 303 302 300 299
299 300 300 300 300 300 300 301 301 301 302 303 302 302 302 302 303 302 302 300 301 300 302 302 293 297 291 290 290 290 289 294 290 301 305 306 307 308 309 309 309 298 293 292 292 292 292 291 291 301 297 295 291 292 298 304 303 303 302 303 302 301 300
299 299 299 300 299 299 299 300 299 299 300 300 300 300 300 301 301 301 300 301 301 301 302 302 296 292 294 290 290 289 289 289 289 298 301 304 304 304 306 307 303 292 291 291 291 291 291 291 299 295 294 290 290 294 302 300 300 303 301 300 300 299 298
Wind_Speed
9 10 9 8 6 6 8 8 7 6 5 5 5 4 4 4 5 6 5 5 5 5 5 5 5 5 5 3 4 5 4 5 6 5 6 6 7 5 2 1 2 3 4 2 5 5 5 7 6 7 7 8 8 7 6 6 6 5 5 4 4 5 5
8 9 8 6 7 6 7 5 5 5 4 3 3 4 4 5 5 5 5 5 5 5 5 5 5 5 5 5 6 6 6 5 4 2 4 6 6 4 5 3 3 4 3 2 4 3 5 7 8 7 5 7 8 6 4 4 4 3 3 4 5 5 5
6 6 6 6 6 7 7 5 4 4 3 3 3 3 4 4 4 4 5 5 5 5 4 4 5 5 5 5 7 7 7 6 3 4 4 4 4 4 5 4 4 4 4 4 4 4 4 5 7 8 6 7 6 3 2 3 4 4 4 5 5 5 6
9 8 7 6 6 6 6 6 5 4 3 4 4 3 3 4 3 3 3 4 3 3 3 4 4 5 6 5 5 6 6 6 5 5 4 3 3 5 6 5 4 5 4 5 6 6 5 5 8 8 6 5 8 6 3 3 3 4 4 3 5 5 5
10 8 9 8 8 8 7 6 4 4 3 3 3 4 4 4 4 3 3 3 3 3 3 3 3 4 4 4 4 4 4 5 4 4 4 5 5 4 6 5 4 3 2 3 5 5 5 5 6 8 7 7 6 5 4 3 4 4 4 4 4 4 4
8 9 9 8 7 7 6 6 5 5 4 3 3 4 4 5 4 4 3 3 3 2 3 3 3 3 3 3 4 4 4 5 5 5 4 5 6 5 5 4 3 3 3 2 4 5 4 5 7 8 7 7 6 7 5 4 4 4 4 4 4 4 4
7 7 8 8 7 6 6 7 6 6 6 5 4 4 5 5 4 3 4 3 3 3 2 2 3 3 3 3 3 3 4 4 3 4 4 4 5 5 4 4 4 3 2 2 4 5 6 7 7 8 8 6 7 7 5 4 5 5 4 4 3 4 3
7 6 6 6 7 6 6 7 5 5 6 4 4 4 5 5 5 4 4 5 3 3 2 2 2 2 2 2 2 2 2 2 3 3 3 5 5 5 4 4 3 3 2 3 5 5 6 6 7 9 10 10 6 5 5 5 4 3 6 4 3 3 3
5 5 4 5 5 7 7 7 6 4 4 4 3 4 4 4 5 6 5 5 4 3 2 2 2 2 2 2 2 3 3 2 3 4 3 5 5 6 6 3 3 3 2 3 4 5 5 5 6 8 7 8 9 7 5 5 4 5 5 5 4 3 3
7 7 6 8 7 5 5 4 4 4 3 3 3 2 4 3 4 5 6 5 5 4 3 2 2 2 2 2 2 3 3 2 2 3 3 3 4 5 4 4 3 3 3 4 4 4 4 5 6 5 3 4 6 8 7 6 5 6 5 4 4 4 3
7 7 6 7 6 5 4 3 4 4 4 3 3 3 4 4 4 4 5 5 5 4 4 3 3 3 3 2 3 3 3 3 3 3 2 3 4 3 4 4 4 3 4 4 4 4 5 5 5 4 1 1 1 5 6 7 6 4 6 3 2 5 5
6 6 5 6 6 6 6 5 5 5 5 5 4 4 5 5 4 4 4 5 4 5 4 4 3 3 3 4 3 3 3 3 3 3 2 3 3 4 5 5 4 4 4 4 4 4 5 5 5 4 2 1 1 1 5 5 7 3 3 5 3 4 7
7 7 6 7 6 7 7 7 6 6 5 4 4 4 5 5 6 6 4 5 5 4 4 3 3 4 3 3 3 3 3 4 5 4 4 3 3 3 5 5 5 4 4 4 5 5 5 5 4 3 3 3 2 1 2 3 4 7 3 3 5 5 7
7 7 7 7 7 7 6 6 6 6 6 5 4 5 5 6 6 6 6 5 5 4 4 4 3 3 4 4 3 3 4 4 5 4 4 4 4 4 4 5 5 4 4 5 5 5 5 6 5 3 3 3 3 3 3 2 4 7 4 1 4 6 6
7 7 7 7 6 6 6 5 6 6 7 5 5 5 5 5 5 6 6 6 5 4 4 4 3 3 4 4 4 2 3 3 4 5 4 5 4 3 4 6 6 5 4 5 6 6 6 6 6 5 4 4 3 3 3 2 3 6 7 5 5 4 7
7 8 8 7 6 6 5 5 6 7 7 6 4 4 5 5 6 6 6 5 5 4 4 4 2 3 3 3 4 3 2 2 3 4 5 4 5 5 5 5 5 5 3 5 6 5 6 6 6 6 5 4 3 3 3 1 2 4 6 6 5 7 7
8 8 7 6 7 6 5 5 5 6 6 6 5 3 4 5 5 5 5 6 6 5 5 4 3 2 3 3 3 4 3 3 3 3 4 4 4 4 6 5 4 4 4 5 5 4 4 4 5 4 4 4 4 4 3 2 2 2 5 6 6 7 8
7 7 6 5 6 6 6 5 5 6 6 6 5 4 3 4 5 5 5 6 6 6 5 4 4 3 2 2 3 3 3 3 3 3 3 3 3 4 4 5 5 5 5 5 4 4 4 5 4 4 5 4 4 3 3 4 4 4 5 6 6 4 5
7 7 7 6 6 6 6 6 5 4 4 6 5 4 4 3 4 4 4 5 6 6 5 4 4 4 3 3 3 2 2 3 3 3 3 3 3 2 3 4 5 5 5 5 5 4 4 6 4 4 5 4 4 3 4 5 5 5 6 7 7 6 5
7 7 7 7 6 6 7 7 6 6 5 5 5 4 4 4 2 4 3 4 5 6 5 5 4 3 3 3 3 3 3 2 2 2 2 2 3 3 3 3 3 3 3 4 5 5 5 4 4 4 4 4 4 4 4 5 6 6 6 6 6 6 7
7 7 8 8 8 7 6 7 7 6 5 5 4 3 3 4 3 2 4 2 3 4 5 5 4 3 3 2 2 2 3 3 3 2 2 2 2 2 2 3 3 2 2 3 3 4 4 4 3 3 2 2 3 4 4 4 5 6 7 6 6 7 7
7 9 9 9 9 7 6 5 6 5 5 5 3 3 2 3 5 3 2 3 3 3 3 4 3 3 3 2 2 2 3 3 3 3 3 2 2 2 3 2 3 3 2 1 1 1 2 1 3 3 2 2 2 2 3 3 4 5 6 6 6 5 6
6 7 8 8 8 7 5 4 5 5 5 4 4 2 2 3 3 3 3 3 2 2 2 2 4 4 3 1 2 1 1 2 3 3 3 2 2 1 1 0 1 4 1 2 2 3 4 4 3 3 1 4 4 3 3 3 4 5 5 6 7 6 7
6 7 6 5 5 6 6 5 6 6 5 4 1 1 6 5 4 2 2 3 3 2 2 4 9 7 5 4 2 2 3 3 2 3 3 3 3 3 3 2 1 1 1 2 3 4 5 5 5 5 4 5 5 5 4 4 5 5 6 6 6 6 7
6 6 6 5 4 5 4 4 3 3 3 3 4 6 5 6 3 2 1 1 1 2 3 6 9 9 6 4 1 2 3 3 4 4 4 4 3 3 4 3 3 2 3 3 3 5 5 6 5 5 6 8 8 8 5 5 5 5 6 7 6 7 8
7 6 5 5 4 3 3 3 2 3 3 2 3 3 4 4 3 2 2 3 2 2 3 5 9 8 8 7 6 3 3 4 4 5 5 5 4 4 3 3 3 3 2 4 3 4 3 4 3 1 2 3 5 7 7 7 8 5 5 8 8 8 8
9 6 5 5 5 5 5 5 4 3 1 2 2 2 4 4 4 3 1 1 2 3 3 5 7 7 7 7 6 4 2 3 3 3 3 3 2 2 2 2 3 3 3 4 3 3 3 3 3 3 4 4 5 5 4 4 6 7 6 6 8 9 8
8 7 6 6 6 8 7 7 7 5 4 4 4 5 5 6 5 4 4 2 3 3 4 7 9 7 6 4 4 3 2 2 2 3 3 1 0 0 1 2 3 4 3 3 2 2 3 4 4 4 4 5 5 4 3 3 4 3 4 5 6 7 4
8 7 7 7 8 7 8 7 6 4 4 5 6 7 6 5 4 4 3 1 2 6 6 6 7 6 5 5 4 1 1 1 1 1 2 1 1 1 2 3 4 4 4 4 5 7 5 4 4 5 6 6 5 4 2 3 3 4 4 4 4 5 4
8 7 7 9 8 7 6 6 5 3 5 6 7 8 7 6 5 4 4 5 6 6 7 6 5 4 3 1 2 1 1 0 1 2 2 1 2 2 2 3 3 4 4 5 3 7 7 5 6 6 6 6 5 4 4 4 6 7 5 5 6 7 8
9 8 8 9 7 6 5 5 6 4 6 6 7 6 5 6 6 6 7 7 7 6 6 9 9 4 1 2 2 1 1 1 2 2 3 2 2 3 2 2 4 5 5 5 1 5 7 7 6 7 6 7 7 7 5 4 2 4 6 8 8 7 9
8 8 8 7 6 7 7 5 5 5 7 7 7 6 5 6 7 7 7 7 9 8 6 8 12 10 5 3 3 3 2 1 2 3 3 3 3 3 3 1 3 4 5 7 8 4 3 6 7 7 8 7 8 9 7 6 5 5 4 4 4 6 7
9 8 8 7 7 6 4 4 6 6 5 6 7 7 6 7 8 7 6 6 7 8 7 7 11 12 10 7 6 3 2 2 3 3 3 4 5 5 5 4 2 6 2 4 5 5 5 7 7 8 8 8 9 11 3 5 5 5 6 5 4 4 5
9 9 7 6 6 6 6 6 5 5 4 4 5 6 7 7 7 6 6 6 7 8 8 7 9 14 12 11 10 7 4 4 4 4 4 4 4 5 4 4 4 6 5 5 5 4 6 8 8 7 8 9 8 2 5 4 6 4 5 5 5 5 5
7 7 7 7 7 7 7 7 6 6 5 5 6 6 4 3 3 4 4 6 7 6 8 11 7 10 13 12 11 10 5 4 5 4 4 4 4 4 4 5 5 7 9 8 7 5 4 6 8 6 8 4 7 6 3 3 5 4 3 4 4 4 4
8 6 7 7 8 7 6 7 7 6 5 5 6 6 5 4 3 4 4 5 5 6 5 6 10 8 9 9 9 9 8 6 7 4 4 5 5 5 5 5 5 6 8 9 9 7 5 5 6 7 5 4 7 8 6 4 6 6 6 6 6 6 4
8 8 8 7 7 7 7 6 6 6 6 5 5 5 5 4 4 4 4 4 5 5 5 5 6 10 9 8 6 5 4 5 5 3 3 3 4 4 4 5 6 9 9 8 8 7 6 5 5 5 6 7 11 9 5 6 6 5 6 7 7 7 6
Wind_Direction
163 158 158 155 141 135 142 147 152 156 166 168 160 161 164 167 165 166 171 173 169 169 191 192 185 178 184 165 164 209 211 197 192 189 169 170 183 163 164 188 101 116 125 28 159 169 153 135 115 69 59 73 75 61 65 72 74 77 77 73 75 83 88
142 146 145 137 142 139 138 143 149 143 143 140 156 156 162 165 167 169 172 176 181 175 191 186 170 181 179 180 176 191 203 202 204 171 178 184 200 168 169 159 148 137 141 115 155 181 153 141 128 117 109 93 78 60 49 69 80 86 93 89 91 99 99
129 126 135 137 141 150 145 147 141 145 144 141 142 157 160 168 166 166 175 176 179 177 187 171 158 170 184 183 190 196 192 186 192 199 204 192 204 165 198 164 162 152 150 144 167 171 160 158 152 138 142 137 105 54 65 93 101 100 101 99 106 113 112
139 138 136 141 142 150 154 153 153 144 149 139 140 144 155 156 154 169 174 172 173 172 177 166 176 178 184 194 194 198 194 191 195 195 204 208 202 184 197 196 188 186 182 184 175 180 169 150 146 143 141 124 123 116 77 77 98 102 100 105 109 110 110
147 149 150 151 155 160 157 154 145 142 141 127 130 132 140 147 148 149 146 147 155 166 171 178 180 182 173 182 185 193 196 201 200 199 206 203 204 206 204 205 210 215 205 212 177 181 183 153 147 142 139 131 128 116 116 104 91 96 96 95 97 109 116
152 153 154 152 157 160 161 154 158 158 143 143 142 139 137 150 147 141 146 144 139 145 142 158 158 168 167 177 180 190 189 192 195 201 204 203 198 204 198 198 212 206 206 189 171 175 154 130 146 147 143 153 137 136 139 145 119 92 88 97 102 103 116
151 155 157 156 157 160 161 162 167 160 164 160 155 149 145 150 139 126 129 117 105 119 135 140 152 164 175 181 167 178 174 183 189 202 209 190 197 200 195 191 202 192 166 161 163 160 153 155 160 156 145 138 142 137 140 135 129 132 104 97 94 103 107
150 157 154 143 149 155 160 163 164 159 163 155 146 125 139 139 126 126 123 123 124 127 134 145 142 147 150 161 142 134 128 140 167 182 176 175 181 182 190 206 173 168 146 160 170 172 166 166 162 155 151 141 134 136 136 133 140 100 123 104 110 114 101
134 118 108 122 148 162 162 163 163 160 144 132 115 130 136 140 136 131 124 115 114 112 108 116 137 151 152 163 145 142 134 137 158 173 161 170 172 178 186 170 174 155 151 161 174 165 168 161 158 163 165 148 144 143 148 145 148 119 136 131 118 108 129
131 144 151 155 160 163 157 153 145 130 121 130 127 121 135 129 130 131 123 120 115 112 112 114 133 145 157 157 146 142 129 133 150 143 152 164 160 174 176 171 174 155 159 158 166 158 149 153 159 168 182 159 159 147 159 154 151 145 161 159 151 147 154
157 152 148 150 144 143 130 120 121 139 142 127 126 129 129 131 126 125 122 121 119 121 122 124 129 128 135 120 116 110 104 128 125 119 124 134 139 154 157 169 166 162 153 171 159 149 148 153 157 169 179 99 135 159 158 155 141 153 144 154 140 142 167
149 141 137 131 136 141 147 151 150 136 128 129 130 134 137 139 137 130 126 127 126 124 126 121 125 118 120 119 116 110 122 139 125 111 111 125 130 148 153 154 160 150 157 157 145 146 146 154 158 159 132 113 51 65 151 142 143 142 158 155 140 134 156
151 148 148 147 151 156 156 148 142 143 133 127 125 138 144 148 149 143 139 134 131 127 122 109 105 107 105 92 103 106 111 123 114 111 112 117 129 143 148 149 153 150 155 153 150 148 151 156 161 157 143 131 106 107 155 152 139 145 162 131 139 143 152
150 149 153 160 157 155 150 145 145 134 130 132 142 147 149 153 153 146 141 140 137 132 124 118 105 107 102 96 86 92 104 105 108 107 114 117 127 139 140 138 139 138 150 155 152 155 161 162 166 165 155 153 134 157 176 139 128 132 135 102 141 153 151
153 154 156 159 150 148 145 140 136 139 139 138 154 148 150 149 148 145 137 134 129 124 125 116 115 111 110 106 95 78 95 101 98 102 108 112 124 125 132 134 136 140 158 156 155 165 163 170 182 188 180 190 166 155 193 166 140 155 154 162 159 148 160
148 154 156 154 152 147 136 136 145 147 143 143 144 146 146 150 147 145 137 133 131 125 119 114 104 113 106 107 103 93 75 76 88 102 103 110 122 128 130 130 137 145 154 150 157 159 163 180 193 200 198 199 198 175 173 201 166 169 165 161 165 167 176
153 157 154 148 145 139 136 135 143 143 140 140 143 127 138 146 145 144 137 134 134 132 125 119 117 102 107 105 108 108 102 102 97 88 97 113 126 137 134 133 139 148 157 152 160 162 176 189 200 212 203 198 211 195 189 178 224 203 177 165 180 188 176
155 152 140 132 133 134 134 133 140 143 139 135 131 136 137 144 144 152 151 148 142 138 137 136 131 119 107 92 95 100 104 104 105 98 95 100 112 119 132 133 144 158 164 163 163 178 182 194 211 222 233 224 213 183 186 206 209 202 186 192 166 187 169
151 141 131 126 130 127 124 125 124 114 129 130 126 133 142 153 155 154 161 151 140 136 137 138 140 136 134 139 132 115 115 121 119 118 112 111 104 96 110 123 141 156 168 178 180 178 187 196 198 217 226 239 234 196 198 195 209 210 213 204 176 169 186
146 139 126 119 119 122 121 122 122 116 121 127 132 142 145 143 139 144 146 154 146 142 139 139 134 136 146 154 153 144 138 135 132 121 118 113 114 103 110 117 136 155 167 172 170 178 179 186 193 204 200 193 202 190 191 204 202 206 214 204 187 187 181
124 113 110 109 105 101 100 99 96 99 109 113 120 122 137 142 127 143 130 129 116 126 134 136 133 138 149 160 161 160 151 149 144 139 129 130 123 135 133 140 152 165 171 173 177 168 177 179 179 197 193 201 186 187 193 189 195 203 203 205 202 191 196
106 113 116 115 110 105 97 92 94 91 89 89 90 113 131 143 136 135 129 134 135 128 128 125 132 145 155 161 173 174 177 170 164 162 170 169 169 170 164 161 174 182 185 189 262 242 211 153 180 185 178 203 200 209 210 194 195 199 204 209 205 196 194
104 106 110 108 107 107 98 88 90 100 97 97 82 57 153 153 137 143 150 144 143 148 126 126 104 109 21 18 173 167 174 185 177 175 177 177 180 214 227 17 23 19 330 192 195 207 199 214 258 316 189 183 193 205 208 215 212 208 209 210 215 201 203
93 85 75 80 85 68 67 48 56 53 52 50 59 167 234 139 109 131 171 174 167 160 111 82 86 85 83 20 328 190 185 180 191 191 196 197 198 187 189 173 161 149 237 181 203 205 215 212 226 261 260 212 210 203 204 215 224 214 218 222 221 213 218
80 75 72 60 67 88 81 71 58 78 108 143 190 217 217 98 106 137 153 147 126 124 120 100 107 108 110 115 4 227 198 195 192 200 204 205 199 196 186 184 178 171 197 199 205 183 194 199 209 222 223 222 223 236 249 242 228 217 222 232 226 223 225
71 70 76 78 46 53 75 90 96 129 145 155 195 226 94 109 129 140 149 151 151 137 104 102 120 124 127 139 150 204 199 204 211 212 208 202 195 190 187 191 190 193 178 160 216 217 216 184 149 78 214 230 253 244 256 285 308 302 235 229 234 229 223
80 73 67 83 95 89 95 81 73 62 70 128 110 62 74 72 62 59 42 69 93 83 85 85 102 112 123 129 144 178 190 196 224 235 241 236 221 208 207 250 251 228 187 192 212 211 219 216 200 198 197 211 217 196 224 247 261 271 278 255 241 240 230
71 67 66 74 76 76 68 65 59 59 71 66 69 66 70 80 74 75 68 75 100 91 64 75 87 98 104 118 146 194 171 194 222 242 254 263 300 2 305 285 278 276 264 235 213 192 230 222 218 226 230 227 224 219 213 218 224 237 233 235 249 251 254
59 59 62 61 61 65 65 57 55 54 65 67 64 71 67 65 71 72 64 58 97 85 77 80 91 101 122 143 186 216 169 201 232 256 275 280 257 219 228 246 262 265 263 268 156 173 226 259 242 241 238 227 220 203 199 93 355 306 298 291 269 264 252
60 55 60 65 61 58 61 56 51 47 76 66 62 57 60 62 55 55 52 41 33 60 69 56 72 83 97 78 280 60 68 286 298 273 280 297 276 260 244 245 256 271 269 265 169 171 195 218 252 253 252 246 229 221 205 129 75 47 16 11 30 50 71
57 54 55 59 63 64 67 71 64 55 74 72 66 59 73 74 60 49 46 46 36 50 59 48 33 30 32 20 350 351 1 334 321 315 309 305 295 289 265 217 282 285 286 283 144 202 181 195 245 250 254 254 253 247 221 142 135 81 75 71 73 78 84
47 50 51 42 34 42 42 55 70 69 71 73 69 67 61 72 64 54 47 52 47 55 54 51 32 26 13 5 353 19 349 314 286 293 304 302 315 308 319 219 182 275 301 321 346 321 209 220 258 268 268 272 265 256 246 153 163 157 146 130 117 108 93
44 43 43 40 40 41 31 35 35 47 54 69 76 67 49 53 57 51 35 41 50 44 37 37 28 25 32 20 352 350 19 329 315 315 312 310 310 314 309 313 110 94 353 305 292 293 244 217 248 269 268 265 267 269 230 156 179 168 159 151 130 102 99
44 44 41 40 41 41 34 35 32 35 36 42 52 56 55 51 43 36 37 37 44 47 38 29 33 24 25 29 23 6 19 7 337 318 303 299 298 306 313 323 312 65 358 325 297 259 234 211 220 250 260 255 269 333 121 181 161 174 152 141 129 126 117
40 43 37 36 43 44 35 34 35 40 48 53 64 68 60 72 81 57 41 40 41 43 57 49 29 39 26 20 20 20 18 28 13 322 311 303 313 309 317 323 318 353 338 322 319 300 242 213 204 222 242 274 81 129 169 122 130 150 122 123 136 131 125
36 35 38 40 47 47 37 38 34 34 38 54 63 62 55 39 47 58 66 59 44 37 30 51 38 34 43 33 24 16 16 358 352 334 334 330 332 325 316 312 315 350 317 303 298 290 262 218 194 224 229 124 141 134 138 150 136 144 155 161 140 121 103
38 36 34 37 47 47 41 40 44 36 30 35 43 49 43 34 38 42 40 47 51 42 35 28 50 33 21 32 61 54 25 5 359 0 343 327 329 322 308 316 317 316 292 277 267 259 246 206 231 227 185 148 149 153 140 142 162 163 154 154 150 136 134